[[{"header":{"parameterUnit":"m.s-1","parameterCategory":1,"la1":30.2991,"la2":30.254,"lo1":-89.0895,"lo2":-89.0444,"dy":0.0017,"dx":0.0017,"nx":28,"ny":28,"refTime":"2025-02-13T09:00:00:Z","depth":0,"parameterNumber":2,"parameterNumberName":"U-component_of_WINDS"},"data":[0,0,0,0,0,0,0,0,0,0,0,0,0,0,0,0,0,0,0,0,0,0,0,0,0,0,0,0,0,0,0,0,0,0,0,0,0,0,0,0,0,0,0,0,0,0,0,0,0,0,0,0,0,0,0,0,0,0,-1.0619,-1.0619,0,-1.0646,-1.0646,-1.0647,-1.0621,-1.062,-1.0619,-1.0618,-1.0648,-1.0649,-1.0651,0,0,0,0,0,0,0,0,0,0,0,0,0,-1.0544,-1.0546,-1.0619,-1.0619,-1.0619,-1.0646,-1.0646,-1.0647,-1.0621,-1.062,-1.0619,-1.0618,-1.0647,-1.0649,-1.0651,0,0,0,0,0,0,0,0,0,0,0,0,0,-1.0575,-1.0546,-1.0618,-1.061,-1.0609,-1.0646,-1.0646,-1.0647,-1.0622,-1.062,-1.0619,-1.0617,-1.0646,-1.0649,-1.0652,-1.0699,0,0,-1.066,-1.0661,0,0,0,0,0,0,0,0,-1.0573,-1.0577,-1.0611,-1.061,-1.061,-1.0629,-1.0631,-1.0664,-1.0622,-1.0617,-1.0618,-1.0616,-1.0643,-1.0645,-1.0654,-1.07,-1.0701,-1.066,-1.0661,-1.0662,-1.0663,0,0,0,0,0,0,0,-1.0571,-1.0576,-1.0629,-1.0611,-1.0611,-1.0605,-1.0607,-1.0637,-1.0638,-1.0617,-1.0616,-1.0619,-1.0642,-1.0652,-1.0655,-1.0702,-1.066,-1.0662,-1.0664,-1.0665,-1.0787,-1.0789,0,0,0,0,0,0,-1.057,-1.0574,-1.0629,-1.063,-1.0587,-1.0607,-1.061,-1.0624,-1.0638,-1.0638,-1.062,-1.0618,-1.0648,-1.0652,-1.0656,-1.0712,-1.0662,-1.0665,-1.0666,-1.0786,-1.0788,-1.079,0,0,0,0,0,0,-1.0568,-1.0575,-1.0627,-1.0602,-1.0608,-1.061,-1.0626,-1.0626,-1.0635,-1.064,-1.064,-1.063,-1.0647,-1.0652,-1.0688,-1.0713,-1.0666,-1.0668,-1.0784,-1.0786,-1.0789,-1.0825,0,0,0,0,0,0,-1.0566,-1.0574,-1.0592,-1.0602,-1.061,-1.066,-1.0628,-1.0627,-1.0639,-1.0636,-1.0649,-1.065,-1.0646,-1.0684,-1.0691,-1.0715,-1.0671,-1.0782,-1.0785,-1.0788,-1.0821,-1.0828,-1.0834,0,0,0,0,0,-1.0563,-1.0602,-1.0593,-1.06,-1.0632,-1.0661,-1.0665,-1.066,-1.0642,-1.066,-1.0663,-1.0649,-1.0708,-1.0688,-1.0695,-1.0721,-1.078,-1.0784,-1.0788,-1.0819,-1.0827,-1.0834,0,0,0,0,0,0,-1.0595,-1.0603,-1.0594,-1.0636,-1.0648,-1.0657,-1.0679,-1.0669,-1.0686,-1.0683,-1.0676,-1.0679,-1.0717,-1.0722,-1.07,-1.0767,-1.0741,-1.0747,-1.0762,-1.077,-1.0777,-1.0775,-1.0673,0,0,0,0,0,-1.0606,-1.0629,-1.0635,-1.0672,-1.0678,-1.0678,-1.069,-1.0685,-1.0697,-1.0702,-1.0708,-1.072,-1.0742,-1.0756,-1.0776,-1.0821,-1.0824,-1.0843,-1.0849,-1.0854,-1.0859,-1.0884,-1.0892,-1.0802,-1.0802,-1.0802,0,0,-1.0631,-1.0638,-1.0653,-1.0678,-1.0687,-1.0711,-1.0682,-1.0709,-1.0726,-1.0706,-1.0741,-1.0745,-1.0759,-1.08,-1.0818,-1.0806,-1.0884,-1.0859,-1.0863,-1.0865,-1.0888,-1.0897,-1.0905,-1.0805,-1.0804,-1.0804,0,0,-1.0689,-1.0696,-1.0728,-1.0737,-1.075,-1.0749,-1.0757,-1.0767,-1.0769,-1.0803,-1.0788,-1.0809,-1.0846,-1.0856,-1.0866,-1.0926,-1.0915,-1.0933,-1.0966,-1.099,-1.0997,-1.1004,-1.1026,-1.1034,-1.0938,-1.0938,-1.0938,0,-1.0718,-1.0753,-1.0745,-1.0773,-1.0784,-1.0766,-1.0798,-1.0807,-1.0827,-1.0835,-1.082,-1.0866,-1.0874,-1.0917,-1.0931,-1.094,-1.0948,-1.0932,-1.0997,-1.1003,-1.1009,-1.103,-1.1038,-1.094,-1.094,-1.094,-1.0939,0,-1.0789,-1.0813,-1.0837,-1.0856,-1.087,-1.0899,-1.0896,-1.0911,-1.0904,-1.0905,-1.094,-1.0949,-1.097,-1.0979,-1.0973,-1.1022,-1.1013,-1.0998,-1.0972,-1.102,-1.1039,-1.1047,-1.0943,-1.0942,-1.0942,-1.0941,0,0,-1.0868,-1.0881,-1.089,-1.0898,-1.0911,-1.093,-1.0958,-1.0979,-1.0992,-1.1005,-1.1029,-1.106,-1.1046,-1.1057,-1.1052,-1.1072,-1.112,-1.1054,-1.1054,-1.1067,-1.1174,-1.1187,-1.1196,-1.1111,-1.1113,-1.1114,-1.1173,0,-1.0927,-1.0977,-1.097,-1.1018,-1.104,-1.1023,-1.1048,-1.1058,-1.1059,-1.1079,-1.108,-1.1102,-1.1081,-1.1088,-1.1107,-1.111,-1.1142,-1.1105,-1.1135,-1.1136,-1.1133,-1.1206,-1.122,-1.1275,-1.1181,-1.1182,-1.1183,0,-1.1002,-1.1018,-1.1068,-1.1076,-1.1086,-1.1108,-1.1126,-1.1145,-1.1156,-1.1155,-1.1167,-1.1158,-1.1186,-1.1159,-1.1198,-1.1174,-1.1185,-1.1188,-1.119,-1.1194,-1.1163,-1.1213,-1.1293,-1.1302,-1.1195,-1.1194,-1.1193,0,-1.1056,-1.109,-1.1124,-1.1131,-1.1142,-1.1158,-1.1163,-1.1173,-1.1185,-1.1201,-1.1209,-1.1227,-1.1238,-1.1252,-1.1248,-1.1228,-1.1289,-1.1261,-1.129,-1.129,-1.1304,-1.1304,-1.1388,-1.131,-1.131,-1.1309,-1.1309,0,-1.1123,-1.1155,-1.1148,-1.117,-1.1204,-1.1196,-1.123,-1.1233,-1.1242,-1.1263,-1.1249,-1.1269,-1.1262,-1.1282,-1.1278,-1.1312,-1.1316,-1.1317,-1.1316,-1.1319,-1.1319,-1.1327,-1.1324,-1.1312,-1.1311,-1.1311,-1.131,0,-1.119,-1.1187,-1.1223,-1.123,-1.1232,-1.1258,-1.1263,-1.1283,-1.1282,-1.131,-1.1316,-1.1315,-1.1338,-1.1335,-1.136,-1.1358,-1.1399,-1.1393,-1.1396,-1.1395,-1.1424,-1.1422,-1.1518,-1.153,-1.1443,-1.1443,-1.1444,0,-1.1234,-1.1257,-1.1266,-1.128,-1.1286,-1.1307,-1.132,-1.1312,-1.1325,-1.1339,-1.1358,-1.1379,-1.1396,-1.1433,-1.1435,-1.1454,-1.1449,-1.1481,-1.1451,-1.1454,-1.145,-1.1449,-1.1452,-1.1487,-1.1488,-1.1489,-1.149,0,-1.1312,-1.1309,-1.1327,-1.1345,-1.136,-1.1373,-1.1386,-1.1397,-1.1391,-1.1406,-1.1429,-1.1442,-1.1467,-1.1489,-1.1507,-1.1512,-1.15,-1.1498,-1.1506,-1.151,-1.1511,-1.1512,-1.1413,-1.1497,-1.1496,-1.1496,-1.1495,-1.1495,-1.1369,-1.1389,-1.1398,-1.1419,-1.1427,-1.1439,-1.1458,-1.1459,-1.1478,-1.1498,-1.1492,-1.1518,-1.1528,-1.155,-1.1557,-1.1578,-1.1566,-1.1577,-1.158,-1.1583,-1.1587,-1.1507,-1.1581,-1.1581,-1.158,-1.158,-1.158,0,-1.1447,-1.1451,-1.1471,-1.1488,-1.1504,-1.149,-1.1503,-1.1518,-1.1541,-1.155,-1.1567,-1.1593,-1.1613,-1.1616,-1.1636,-1.1651,-1.1646,-1.1657,-1.1656,-1.1658,-1.1596,-1.1588,-1.166,-1.166,-1.166,-1.166,-1.166,-1.166,-1.1489,-1.1523,-1.1521,-1.1558,-1.1563,-1.1588,-1.1596,-1.1607,-1.1615,-1.1644,-1.1661,-1.1662,-1.167,-1.1689,-1.1707,-1.1707,-1.1716,-1.1729,-1.1727,-1.167,-1.1662,-1.1654,-1.1647,-1.173,-1.173,-1.1787,-1.1787,-1.1788]},{"header":{"parameterUnit":"m.s-1","parameterCategory":1,"la1":30.2991,"la2":30.254,"lo1":-89.0895,"lo2":-89.0444,"dy":0.0017,"dx":0.0017,"nx":28,"ny":28,"refTime":"2025-02-13T09:00:00:Z","depth":0,"parameterNumber":3,"parameterNumberName":"V-component_of_WINDS"},"data":[0,0,0,0,0,0,0,0,0,0,0,0,0,0,0,0,0,0,0,0,0,0,0,0,0,0,0,0,0,0,0,0,0,0,0,0,0,0,0,0,0,0,0,0,0,0,0,0,0,0,0,0,0,0,0,0,0,0,-7.795,-7.795,0,-7.8006,-7.8007,-7.8007,-7.7947,-7.7945,-7.7942,-7.794,-7.7991,-7.7995,-7.7998,0,0,0,0,0,0,0,0,0,0,0,0,0,-7.7784,-7.7788,-7.795,-7.795,-7.7951,-7.8006,-7.8007,-7.8007,-7.7947,-7.7945,-7.7942,-7.7939,-7.799,-7.7994,-7.7998,0,0,0,0,0,0,0,0,0,0,0,0,0,-7.785,-7.7789,-7.7949,-7.7928,-7.7927,-7.8006,-7.8007,-7.8008,-7.7948,-7.7945,-7.7941,-7.7938,-7.7989,-7.7994,-7.7999,-7.81,0,0,-7.8015,-7.8017,0,0,0,0,0,0,0,0,-7.7846,-7.7856,-7.793,-7.7929,-7.7928,-7.7966,-7.7967,-7.8038,-7.7949,-7.794,-7.794,-7.7936,-7.7985,-7.7991,-7.8008,-7.8103,-7.8105,-7.8015,-7.8019,-7.8021,-7.8022,0,0,0,0,0,0,0,-7.7842,-7.7853,-7.7972,-7.7931,-7.793,-7.7913,-7.7919,-7.798,-7.7981,-7.794,-7.7936,-7.7944,-7.7984,-7.8004,-7.8009,-7.8105,-7.8015,-7.802,-7.8023,-7.8025,-7.8287,-7.8291,0,0,0,0,0,0,-7.784,-7.785,-7.797,-7.7973,-7.7878,-7.7919,-7.7925,-7.7957,-7.798,-7.798,-7.7947,-7.7941,-7.7996,-7.8003,-7.8011,-7.8132,-7.8021,-7.8026,-7.8029,-7.8283,-7.8288,-7.8292,0,0,0,0,0,0,-7.7837,-7.7852,-7.7968,-7.7911,-7.7924,-7.7926,-7.7962,-7.796,-7.798,-7.7985,-7.7984,-7.7967,-7.7994,-7.8003,-7.8079,-7.8133,-7.8028,-7.8033,-7.8279,-7.8285,-7.829,-7.8375,0,0,0,0,0,0,-7.7833,-7.7851,-7.789,-7.7912,-7.7927,-7.8037,-7.7965,-7.7964,-7.799,-7.7983,-7.8004,-7.8004,-7.7992,-7.8072,-7.8085,-7.8138,-7.8037,-7.8274,-7.8281,-7.8288,-7.8367,-7.8383,-7.8396,0,0,0,0,0,-7.7827,-7.791,-7.7893,-7.7908,-7.7977,-7.804,-7.8049,-7.8035,-7.7994,-7.8034,-7.8037,-7.8003,-7.8125,-7.808,-7.8094,-7.815,-7.8271,-7.8279,-7.8288,-7.8361,-7.838,-7.8396,0,0,0,0,0,0,-7.7891,-7.7912,-7.7893,-7.7986,-7.8013,-7.803,-7.8079,-7.8055,-7.8091,-7.8083,-7.8062,-7.8067,-7.8148,-7.8156,-7.8106,-7.825,-7.8191,-7.8203,-7.8242,-7.826,-7.8274,-7.827,-7.8041,0,0,0,0,0,-7.7917,-7.7969,-7.7983,-7.8064,-7.8078,-7.8077,-7.8103,-7.8091,-7.8116,-7.8126,-7.8135,-7.8159,-7.8202,-7.8231,-7.8272,-7.8368,-7.8372,-7.8414,-7.8428,-7.844,-7.845,-7.8503,-7.8522,-7.832,-7.832,-7.832,0,0,-7.7969,-7.7987,-7.802,-7.8077,-7.8096,-7.8148,-7.8086,-7.8143,-7.8182,-7.8134,-7.8207,-7.8215,-7.824,-7.8327,-7.8366,-7.8336,-7.8507,-7.8451,-7.846,-7.8464,-7.8514,-7.8533,-7.855,-7.8326,-7.8325,-7.8324,0,0,-7.8092,-7.811,-7.8181,-7.8202,-7.8232,-7.8231,-7.8248,-7.827,-7.8275,-7.8348,-7.8314,-7.8358,-7.8434,-7.8454,-7.8474,-7.8607,-7.8578,-7.8621,-7.8695,-7.8747,-7.8763,-7.8777,-7.8826,-7.8843,-7.8631,-7.8631,-7.8631,0,-7.8152,-7.8232,-7.8219,-7.8281,-7.8307,-7.8269,-7.8339,-7.8359,-7.84,-7.8419,-7.8386,-7.8481,-7.8495,-7.8588,-7.8621,-7.8638,-7.8656,-7.8618,-7.8762,-7.8776,-7.8789,-7.8835,-7.8853,-7.8636,-7.8636,-7.8635,-7.8635,0,-7.8305,-7.8361,-7.8414,-7.8459,-7.8491,-7.8556,-7.8552,-7.8585,-7.8571,-7.8573,-7.8649,-7.8665,-7.8709,-7.873,-7.8714,-7.882,-7.8801,-7.8766,-7.8706,-7.8814,-7.8856,-7.8874,-7.8644,-7.8642,-7.864,-7.8639,0,0,-7.8468,-7.8507,-7.8527,-7.8548,-7.858,-7.8622,-7.8685,-7.8731,-7.8761,-7.8791,-7.8843,-7.891,-7.8878,-7.8901,-7.8888,-7.8933,-7.9039,-7.8892,-7.8892,-7.8919,-7.9158,-7.9185,-7.9205,-7.902,-7.9023,-7.9026,-7.9156,0,-7.8592,-7.8706,-7.8697,-7.8804,-7.8856,-7.8822,-7.8878,-7.8903,-7.8907,-7.895,-7.8953,-7.9001,-7.8955,-7.8969,-7.9013,-7.9017,-7.9087,-7.9007,-7.9068,-7.907,-7.9063,-7.9227,-7.9256,-7.9377,-7.9172,-7.9175,-7.9177,0,-7.8751,-7.8791,-7.8904,-7.8931,-7.8952,-7.9003,-7.9045,-7.9088,-7.9115,-7.9115,-7.9142,-7.9122,-7.9185,-7.9125,-7.9212,-7.9158,-7.9182,-7.9188,-7.9193,-7.9198,-7.913,-7.9237,-7.9416,-7.9434,-7.9203,-7.9201,-7.9199,0,-7.886,-7.8941,-7.902,-7.9039,-7.9072,-7.9108,-7.9123,-7.9148,-7.9176,-7.9213,-7.9231,-7.9273,-7.9296,-7.9329,-7.932,-7.9277,-7.9409,-7.9348,-7.941,-7.9411,-7.9439,-7.9437,-7.9625,-7.9455,-7.9454,-7.9454,-7.9454,0,-7.9,-7.907,-7.907,-7.9119,-7.9197,-7.9186,-7.9263,-7.9273,-7.9295,-7.9344,-7.9316,-7.9362,-7.9348,-7.9393,-7.9386,-7.946,-7.947,-7.9471,-7.9468,-7.9473,-7.9474,-7.9489,-7.948,-7.9459,-7.9458,-7.9457,-7.9456,0,-7.9134,-7.9137,-7.9221,-7.9247,-7.9255,-7.9311,-7.9332,-7.9377,-7.938,-7.9442,-7.9456,-7.946,-7.9512,-7.9507,-7.9563,-7.9559,-7.965,-7.9637,-7.9642,-7.9639,-7.9702,-7.9697,-7.9906,-7.9933,-7.9745,-7.9747,-7.9748,0,-7.9223,-7.9277,-7.931,-7.9343,-7.9361,-7.9413,-7.9444,-7.9435,-7.9467,-7.9505,-7.9545,-7.9595,-7.9634,-7.9718,-7.9725,-7.9769,-7.9757,-7.9827,-7.9763,-7.9767,-7.9758,-7.9756,-7.9761,-7.9839,-7.9842,-7.9843,-7.9845,0,-7.9381,-7.9381,-7.9427,-7.9476,-7.9514,-7.955,-7.9583,-7.9611,-7.9605,-7.9643,-7.9698,-7.9729,-7.9789,-7.9838,-7.9881,-7.9893,-7.9869,-7.9865,-7.9882,-7.9888,-7.9889,-7.989,-7.9677,-7.986,-7.9859,-7.9858,-7.9857,-7.9856,-7.9496,-7.9543,-7.9575,-7.9629,-7.9654,-7.9686,-7.9731,-7.9741,-7.9787,-7.9838,-7.9829,-7.989,-7.9917,-7.9972,-7.9989,-8.0036,-8.001,-8.0034,-8.004,-8.0046,-8.0054,-7.9882,-8.0043,-8.0043,-8.0042,-8.0042,-8.0041,0,-7.9653,-7.9673,-7.9722,-7.9772,-7.9814,-7.979,-7.9826,-7.9862,-7.9918,-7.9946,-7.9987,-8.005,-8.0099,-8.0111,-8.0157,-8.0192,-8.0182,-8.0205,-8.0202,-8.0206,-8.0074,-8.0056,-8.0212,-8.0212,-8.0212,-8.0212,-8.0212,-8.0212,-7.974,-7.982,-7.9824,-7.9916,-7.9934,-7.9997,-8.0019,-8.0049,-8.0072,-8.0145,-8.0187,-8.0195,-8.0217,-8.0265,-8.0309,-8.0311,-8.0329,-8.0357,-8.0355,-8.0232,-8.0214,-8.0198,-8.0181,-8.0361,-8.0361,-8.0482,-8.0483,-8.0484]}]]